[[{"header":{"parameterUnit":"m.s-1","parameterCategory":2,"la1":30.2991,"la2":30.254,"lo1":-89.0895,"lo2":-89.0444,"dy":0.0017,"dx":0.0017,"nx":28,"ny":28,"refTime":"2023-08-01T09:00:00:Z","depth":"0","parameterNumber":2,"parameterNumberName":"U-component_of_CURRENTS"},"data":[0,0,0,0,0,0,0,0,0,0,0,0,0,0,0,0,0,0,0,0,0,0,0,0,0,0,0,0,0,0,0,0,0,0,0,0,0,0,0,0,0,0,0,0,0,0,0,0,0,0,0,0,0,0,0,0,0,0,-0.328,-0.328,0,-0.3219,-0.3218,-0.3217,-0.3139,-0.3138,-0.3137,-0.3136,-0.2991,-0.2989,-0.2986,0,0,0,0,0,0,0,0,0,0,0,0,0,-0.3154,-0.3158,-0.328,-0.3279,-0.3279,-0.3219,-0.3218,-0.3217,-0.314,-0.3138,-0.3137,-0.3136,-0.2992,-0.2989,-0.2986,0,0,0,0,0,0,0,0,0,0,0,0,0,-0.3162,-0.3159,-0.328,-0.3234,-0.3229,-0.3219,-0.3218,-0.3217,-0.314,-0.3138,-0.3136,-0.3135,-0.2993,-0.2989,-0.2985,-0.2993,0,0,-0.2972,-0.2971,0,0,0,0,0,0,0,0,-0.3162,-0.3166,-0.3241,-0.3237,-0.3232,-0.3186,-0.312,-0.3138,-0.314,-0.3173,-0.3136,-0.3134,-0.3051,-0.3042,-0.3033,-0.2986,-0.298,-0.2972,-0.2969,-0.2968,-0.2966,0,0,0,0,0,0,0,-0.3161,-0.3168,-0.3254,-0.3241,-0.3235,-0.3156,-0.3157,-0.3123,-0.3119,-0.317,-0.3164,-0.316,-0.3047,-0.3038,-0.3029,-0.2978,-0.2972,-0.2968,-0.2966,-0.2964,-0.2897,-0.2898,0,0,0,0,0,0,-0.3184,-0.3169,-0.3256,-0.3253,-0.3193,-0.316,-0.3161,-0.3201,-0.3121,-0.3109,-0.3161,-0.3156,-0.3046,-0.3034,-0.3024,-0.2995,-0.2968,-0.2964,-0.2961,-0.2897,-0.2898,-0.2898,0,0,0,0,0,0,-0.3182,-0.3194,-0.3259,-0.3206,-0.3209,-0.3166,-0.3211,-0.3201,-0.3175,-0.3116,-0.3101,-0.3143,-0.3044,-0.303,-0.2989,-0.299,-0.2962,-0.2958,-0.2896,-0.2897,-0.2898,-0.296,0,0,0,0,0,0,-0.318,-0.3195,-0.3228,-0.3211,-0.3214,-0.3242,-0.3212,-0.3201,-0.3176,-0.3169,-0.3096,-0.3082,-0.3042,-0.2996,-0.2985,-0.2984,-0.2955,-0.2895,-0.2896,-0.2898,-0.2957,-0.2963,-0.2968,0,0,0,0,0,-0.3176,-0.3206,-0.3232,-0.3241,-0.3265,-0.3242,-0.3235,-0.3195,-0.3177,-0.3165,-0.3125,-0.3083,-0.2997,-0.2993,-0.298,-0.2978,-0.2894,-0.2896,-0.2897,-0.2954,-0.2962,-0.2968,0,0,0,0,0,0,-0.3164,-0.3202,-0.3228,-0.3272,-0.3263,-0.3229,-0.3208,-0.3195,-0.3157,-0.3143,-0.309,-0.3074,-0.3039,-0.3006,-0.3004,-0.2965,-0.294,-0.2939,-0.2987,-0.2994,-0.2999,-0.2991,-0.2951,0,0,0,0,0,-0.3189,-0.3221,-0.324,-0.327,-0.3268,-0.3246,-0.3232,-0.3212,-0.3177,-0.3157,-0.3113,-0.307,-0.3042,-0.3015,-0.298,-0.2958,-0.2898,-0.295,-0.2955,-0.296,-0.2946,-0.2876,-0.2873,-0.2904,-0.2904,-0.2904,0,0,-0.3187,-0.3215,-0.3231,-0.3269,-0.3255,-0.3253,-0.323,-0.3205,-0.3201,-0.3149,-0.3114,-0.3084,-0.3042,-0.3017,-0.2999,-0.2984,-0.292,-0.2962,-0.2967,-0.2949,-0.2877,-0.2873,-0.287,-0.2905,-0.2905,-0.2905,0,0,-0.3177,-0.3232,-0.3247,-0.3249,-0.3246,-0.324,-0.3237,-0.3212,-0.3195,-0.3179,-0.3142,-0.3122,-0.3066,-0.3045,-0.3028,-0.3047,-0.2954,-0.3026,-0.3041,-0.2974,-0.297,-0.2966,-0.2881,-0.2869,-0.3027,-0.3027,-0.3027,0,-0.3178,-0.3205,-0.3238,-0.3246,-0.3229,-0.3238,-0.3222,-0.3229,-0.3194,-0.3173,-0.317,-0.3103,-0.3086,-0.3054,-0.307,-0.3059,-0.2984,-0.302,-0.2979,-0.2974,-0.2969,-0.2883,-0.2868,-0.303,-0.303,-0.303,-0.3029,0,-0.3177,-0.3188,-0.3181,-0.3214,-0.3216,-0.3187,-0.3213,-0.321,-0.3201,-0.3192,-0.3156,-0.3143,-0.3092,-0.3104,-0.3096,-0.3054,-0.2999,-0.2996,-0.2959,-0.2969,-0.2878,-0.2862,-0.3035,-0.3034,-0.3033,-0.3032,0,0,-0.3176,-0.318,-0.3173,-0.3164,-0.318,-0.3176,-0.3191,-0.3181,-0.3162,-0.3169,-0.3119,-0.3138,-0.3114,-0.3094,-0.3081,-0.305,-0.2981,-0.3006,-0.3001,-0.2916,-0.2789,-0.2539,-0.2496,-0.2948,-0.2946,-0.2944,-0.2739,0,-0.3142,-0.3134,-0.3146,-0.3118,-0.3102,-0.3121,-0.3128,-0.314,-0.3131,-0.3098,-0.3111,-0.307,-0.3115,-0.3082,-0.3062,-0.3005,-0.294,-0.3034,-0.2797,-0.2789,-0.256,-0.247,-0.2143,-0.1911,-0.2723,-0.272,-0.2718,0,-0.3109,-0.3111,-0.3077,-0.3049,-0.3044,-0.3043,-0.3026,-0.3036,-0.303,-0.3019,-0.3,-0.2986,-0.2976,-0.2995,-0.29,-0.2944,-0.2858,-0.2817,-0.2807,-0.2533,-0.2506,-0.2034,-0.1851,-0.1703,-0.2693,-0.2695,-0.2696,0,-0.3057,-0.3036,-0.2999,-0.2996,-0.3003,-0.2985,-0.2988,-0.2994,-0.2963,-0.2957,-0.2902,-0.2903,-0.2851,-0.2807,-0.2741,-0.2801,-0.2582,-0.2657,-0.234,-0.2322,-0.1974,-0.1927,-0.1606,-0.2523,-0.2524,-0.2524,-0.2525,0,-0.2988,-0.2949,-0.2969,-0.2956,-0.2894,-0.2943,-0.2872,-0.2884,-0.2859,-0.2778,-0.2843,-0.2734,-0.2789,-0.2677,-0.2663,-0.2413,-0.2509,-0.2289,-0.2229,-0.1985,-0.1943,-0.1745,-0.183,-0.2517,-0.2518,-0.252,-0.2521,0,-0.2887,-0.2916,-0.2862,-0.2869,-0.2856,-0.2819,-0.2769,-0.2717,-0.274,-0.2626,-0.2613,-0.2569,-0.2417,-0.2409,-0.2292,-0.2234,-0.2007,-0.1964,-0.1662,-0.1568,-0.1155,-0.1259,-0.1193,-0.1247,-0.1598,-0.159,-0.1583,0,-0.2812,-0.2783,-0.2767,-0.2733,-0.2713,-0.267,-0.2613,-0.2635,-0.2563,-0.2483,-0.2385,-0.2235,-0.2,-0.1741,-0.1619,-0.1451,-0.1627,-0.1096,-0.1163,-0.1012,-0.1088,-0.1423,-0.1506,-0.0743,-0.073,-0.072,-0.0711,0,-0.2648,-0.2653,-0.2625,-0.2555,-0.2494,-0.2417,-0.2344,-0.2269,-0.227,-0.2128,-0.1876,-0.1681,-0.1382,-0.096,-0.0773,-0.0732,-0.1042,-0.0869,-0.0778,-0.0411,-0.0691,-0.0749,-0.1031,-0.0617,-0.0626,-0.0633,-0.0638,-0.0642,-0.2493,-0.2435,-0.2411,-0.2312,-0.2248,-0.2128,-0.1966,-0.1891,-0.169,-0.1405,-0.1362,-0.0936,-0.0462,-0.0082,-0.0044,0.0213,-0.03,0.0266,0.0121,-0.0241,-0.0254,-0.0308,0.0205,0.02,0.0196,0.0193,0.019,0,-0.227,-0.2235,-0.2158,-0.2034,-0.1861,-0.1913,-0.1728,-0.1511,-0.1162,-0.0945,-0.06,0.0025,0.0609,0.0799,0.1165,0.1237,0.0885,0.1149,0.079,0.0641,0.0679,0.0774,0.1518,0.1518,0.1518,0.1518,0.1517,0.1517,-0.2161,-0.2036,-0.1998,-0.167,-0.156,-0.1236,-0.1074,-0.0813,-0.0577,-0.0048,0.0288,0.0479,0.08,0.1528,0.1874,0.1839,0.146,0.1475,0.1102,0.1286,0.1191,0.1099,0.1181,0.1998,0.1998,0.1107,0.1102,0.1098]},{"header":{"parameterUnit":"m.s-1","parameterCategory":2,"la1":30.2991,"la2":30.254,"lo1":-89.0895,"lo2":-89.0444,"dy":0.0017,"dx":0.0017,"nx":28,"ny":28,"refTime":"2023-08-01T09:00:00:Z","depth":"0","parameterNumber":3,"parameterNumberName":"V-component_of_CURRENTS"},"data":[0,0,0,0,0,0,0,0,0,0,0,0,0,0,0,0,0,0,0,0,0,0,0,0,0,0,0,0,0,0,0,0,0,0,0,0,0,0,0,0,0,0,0,0,0,0,0,0,0,0,0,0,0,0,0,0,0,0,0.0032,0.0034,0,0.0168,0.017,0.0171,0.0277,0.0278,0.0279,0.028,0.0423,0.0426,0.0429,0,0,0,0,0,0,0,0,0,0,0,0,0,-0.0225,-0.0221,0.0032,0.0034,0.0036,0.0168,0.017,0.0172,0.0277,0.0278,0.0279,0.028,0.0422,0.0426,0.0429,0,0,0,0,0,0,0,0,0,0,0,0,0,-0.0104,-0.0219,0.0032,0.0104,0.0112,0.0168,0.017,0.0172,0.0276,0.0278,0.028,0.0281,0.0421,0.0425,0.043,0.0424,0,0,0.0442,0.0444,0,0,0,0,0,0,0,0,-0.0111,-0.0095,0.0092,0.01,0.0109,0.0208,0.0132,0.0257,0.0276,0.0213,0.028,0.0282,0.0351,0.0361,0.0382,0.043,0.0436,0.0443,0.0445,0.0447,0.0448,0,0,0,0,0,0,0,-0.012,-0.0101,0.0085,0.0094,0.0104,0.01,0.012,0.0156,0.0271,0.0219,0.0227,0.0243,0.0356,0.0378,0.0386,0.0439,0.0443,0.0447,0.0449,0.0451,0.0477,0.0475,0,0,0,0,0,0,-0.0131,-0.0108,0.0081,0.009,0.0001,0.0104,0.0126,0.0174,0.0271,0.0287,0.0241,0.0247,0.037,0.0381,0.0392,0.0389,0.0447,0.0451,0.0454,0.0479,0.0476,0.0474,0,0,0,0,0,0,-0.0137,-0.0114,0.0076,-0.0008,0.0016,0.0107,0.016,0.0176,0.0201,0.0288,0.0305,0.0251,0.0372,0.0386,0.0407,0.0396,0.0453,0.0457,0.0481,0.0478,0.0475,0.0385,0,0,0,0,0,0,-0.0144,-0.0116,-0.0092,-0.0007,0.0021,0.0089,0.0159,0.0177,0.0209,0.0218,0.0301,0.0317,0.0374,0.04,0.0411,0.0403,0.046,0.0483,0.0479,0.0476,0.039,0.0379,0.037,0,0,0,0,0,-0.0153,-0.0131,-0.0091,-0.0069,0.0055,0.0087,0.01,0.0168,0.0207,0.02,0.0256,0.0314,0.0386,0.0401,0.0415,0.0408,0.0485,0.0481,0.0476,0.0394,0.0381,0.037,0,0,0,0,0,0,-0.0225,-0.0115,-0.007,-0.0011,0.0026,0.0105,0.011,0.0156,0.0196,0.0209,0.0291,0.0308,0.0321,0.0365,0.038,0.04,0.0444,0.0443,0.0377,0.0365,0.0355,0.0361,0.0464,0,0,0,0,0,-0.023,-0.0184,-0.0099,-0.0059,-0.0043,0.003,0.0052,0.0097,0.0147,0.0168,0.0222,0.0275,0.0312,0.0339,0.0371,0.0384,0.0393,0.0385,0.0375,0.0366,0.0377,0.036,0.035,0.0461,0.0461,0.0461,0,0,-0.0243,-0.0182,-0.0152,-0.0073,-0.0035,-0.0024,0.0047,0.007,0.0087,0.0174,0.0196,0.0236,0.0302,0.0316,0.0326,0.0357,0.0329,0.0361,0.0354,0.037,0.0355,0.0344,0.0335,0.0458,0.0458,0.0459,0,0,-0.0285,-0.0201,-0.0194,-0.017,-0.0121,-0.0072,-0.0072,-0.0008,0.0027,0.004,0.0112,0.0145,0.0189,0.0249,0.0284,0.0234,0.0267,0.0235,0.0206,0.0188,0.0179,0.0172,0.0128,0.0118,0.0241,0.0241,0.0241,0,-0.0308,-0.0263,-0.0197,-0.0204,-0.0174,-0.0101,-0.0101,-0.0069,-0.0008,0.0014,0.0027,0.0099,0.0163,0.0206,0.0202,0.0217,0.0194,0.0251,0.0175,0.0169,0.0163,0.012,0.011,0.0236,0.0237,0.0237,0.0238,0,-0.0359,-0.032,-0.0325,-0.0283,-0.0262,-0.0248,-0.019,-0.0174,-0.0129,-0.009,-0.0065,0.0002,0.0055,0.0073,0.0134,0.0133,0.0123,0.0154,0.0208,0.0146,0.0105,0.0095,0.0229,0.0231,0.0232,0.0234,0,0,-0.0395,-0.0357,-0.0357,-0.0339,-0.0288,-0.027,-0.0258,-0.021,-0.0201,-0.0169,-0.0168,-0.0084,-0.0047,-0.0005,0.0063,0.007,0.0012,0.0095,0.0097,0.0055,-0.0066,0.0044,0.0045,0.0018,0.0017,0.0016,-0.0092,0,-0.0441,-0.0447,-0.0416,-0.0413,-0.0395,-0.0334,-0.033,-0.0289,-0.0255,-0.0254,-0.0185,-0.0166,-0.0078,-0.0058,-0.004,0.0001,-0.001,0.0037,-0.0,-0.0001,0.0108,0.004,0.0189,0.0117,-0.0101,-0.0102,-0.0103,0,-0.0492,-0.0474,-0.0473,-0.0432,-0.0425,-0.0425,-0.0377,-0.0367,-0.0345,-0.033,-0.0302,-0.0266,-0.0222,-0.0165,-0.0136,-0.012,-0.0095,-0.0074,-0.0078,0.0063,0.0095,0.0152,0.0109,0.0089,-0.0117,-0.0116,-0.0115,0,-0.0514,-0.0506,-0.0488,-0.0477,-0.0442,-0.0435,-0.0415,-0.0388,-0.0374,-0.0378,-0.0388,-0.0357,-0.0335,-0.0315,-0.0223,-0.0206,-0.0227,-0.0201,-0.009,-0.0085,0.006,0.0083,0.0011,-0.0206,-0.0206,-0.0206,-0.0205,0,-0.0537,-0.0527,-0.0501,-0.0491,-0.0486,-0.0462,-0.0463,-0.0446,-0.0448,-0.04,-0.0421,-0.0371,-0.0371,-0.0355,-0.0298,-0.0212,-0.0286,-0.0104,-0.0097,0.0029,0.0049,0.006,0.0013,-0.021,-0.0209,-0.0208,-0.0207,0,-0.0544,-0.0532,-0.0514,-0.0491,-0.0489,-0.0483,-0.0476,-0.0473,-0.0482,-0.0431,-0.0432,-0.0422,-0.0373,-0.0381,-0.035,-0.0279,-0.0182,-0.0182,-0.0041,-0.0011,0.0105,0.0047,0.0003,0.013,-0.0105,-0.0103,-0.0101,0,-0.0537,-0.0526,-0.0509,-0.0499,-0.0486,-0.0482,-0.0471,-0.0478,-0.0447,-0.0382,-0.0342,-0.0338,-0.0178,-0.0175,-0.0152,-0.0121,-0.0097,0.0042,0.0141,0.0126,0.0065,0.003,0.014,0.0256,0.0261,0.0265,0.0268,0,-0.0508,-0.0507,-0.0494,-0.0467,-0.0456,-0.0432,-0.0402,-0.038,-0.0319,-0.0209,0.0013,0.0138,0.0107,0.024,0.0162,0.0195,0.0108,0.0126,0.0073,0.0317,0.0311,0.0434,0.0272,0.0302,0.0298,0.0296,0.0294,0.0292,-0.0477,-0.0464,-0.0438,-0.0403,-0.0386,-0.0304,-0.0211,-0.0127,0.004,0.0368,0.0445,0.0842,0.0755,0.0694,0.0536,0.0397,0.0363,0.049,0.0404,0.0357,0.0548,0.0462,0.0541,0.0539,0.0537,0.0536,0.0535,0,-0.0378,-0.0371,-0.0359,-0.0281,-0.0188,-0.0208,-0.0088,0.0088,0.0422,0.0776,0.1175,0.1671,0.1518,0.1221,0.0903,0.0754,0.0702,0.0668,0.0631,0.0728,0.062,0.0712,0.088,0.088,0.088,0.088,0.088,0.088,-0.032,-0.0272,-0.026,-0.0077,-0.0001,0.0203,0.0332,0.0621,0.0903,0.1597,0.2124,0.2463,0.2253,0.1424,0.0931,0.0855,0.0818,0.0728,0.0709,0.0576,0.0552,0.0529,0.0606,0.0749,0.0748,0.0963,0.0964,0.0964]}],[{"header":{"parameterUnit":"m.s-1","parameterCategory":2,"la1":30.2991,"la2":30.254,"lo1":-89.0895,"lo2":-89.0444,"dy":0.0017,"dx":0.0017,"nx":28,"ny":28,"refTime":"2023-08-01T09:00:00:Z","depth":"2","parameterNumber":2,"parameterNumberName":"U-component_of_CURRENTS"},"data":[0,0,0,0,0,0,0,0,0,0,0,0,0,0,0,0,0,0,0,0,0,0,0,0,0,0,0,0,0,0,0,0,0,0,0,0,0,0,0,0,0,0,0,0,0,0,0,0,0,0,0,0,0,0,0,0,0,0,-0.1623,-0.1623,0,-0.1706,-0.1708,-0.171,-0.1792,-0.1792,-0.1792,-0.1792,-0.1965,-0.197,-0.1974,0,0,0,0,0,0,0,0,0,0,0,0,0,-0.1643,-0.1643,-0.1623,-0.1623,-0.1623,-0.1706,-0.1708,-0.171,-0.1792,-0.1792,-0.1792,-0.1792,-0.1964,-0.1969,-0.1975,0,0,0,0,0,0,0,0,0,0,0,0,0,-0.1682,-0.1643,-0.1623,-0.1664,-0.1668,-0.1705,-0.1708,-0.1711,-0.1792,-0.1792,-0.1792,-0.1792,-0.1962,-0.1968,-0.1975,-0.2019,0,0,-0.1997,-0.2,0,0,0,0,0,0,0,0,-0.168,-0.1683,-0.1658,-0.1662,-0.1666,-0.1728,-0.1778,-0.1814,-0.1792,-0.1757,-0.1792,-0.1792,-0.1886,-0.1899,-0.1931,-0.2027,-0.2034,-0.1997,-0.2001,-0.2004,-0.2006,0,0,0,0,0,0,0,-0.1677,-0.168,-0.1668,-0.1658,-0.1662,-0.1715,-0.1722,-0.1787,-0.1832,-0.176,-0.1764,-0.1754,-0.1891,-0.1924,-0.1936,-0.2037,-0.1997,-0.2003,-0.2007,-0.201,-0.2089,-0.2087,0,0,0,0,0,0,-0.1637,-0.1677,-0.1665,-0.1669,-0.1659,-0.1714,-0.1721,-0.1718,-0.1829,-0.1842,-0.1754,-0.1757,-0.1912,-0.1927,-0.1942,-0.1968,-0.2004,-0.2011,-0.2015,-0.2091,-0.2088,-0.2086,0,0,0,0,0,0,-0.1637,-0.1635,-0.1661,-0.1665,-0.1671,-0.1711,-0.1709,-0.1719,-0.1812,-0.1821,-0.1838,-0.184,-0.1913,-0.1932,-0.2005,-0.1977,-0.2014,-0.202,-0.2093,-0.209,-0.2087,-0.2041,0,0,0,0,0,0,-0.1638,-0.1635,-0.1657,-0.1662,-0.1668,-0.1676,-0.1708,-0.172,-0.1796,-0.1804,-0.19,-0.1912,-0.1914,-0.1994,-0.2012,-0.1987,-0.2026,-0.2096,-0.2092,-0.2088,-0.2045,-0.2037,-0.2029,0,0,0,0,0,-0.1638,-0.1611,-0.1657,-0.1657,-0.1684,-0.1674,-0.1685,-0.1722,-0.1801,-0.1817,-0.1884,-0.1912,-0.1979,-0.2001,-0.2021,-0.1997,-0.2098,-0.2093,-0.2088,-0.2049,-0.2038,-0.203,0,0,0,0,0,0,-0.1638,-0.1617,-0.1667,-0.1644,-0.167,-0.1684,-0.1679,-0.1769,-0.1846,-0.1861,-0.1931,-0.1945,-0.1973,-0.2005,-0.2027,-0.1997,-0.2027,-0.2026,-0.1989,-0.198,-0.1972,-0.1907,-0.2031,0,0,0,0,0,-0.1648,-0.162,-0.1638,-0.1629,-0.1623,-0.1694,-0.1717,-0.1754,-0.1799,-0.1839,-0.1895,-0.1938,-0.1962,-0.1994,-0.1999,-0.2041,-0.2022,-0.202,-0.2012,-0.2005,-0.196,-0.192,-0.1904,-0.2071,-0.2071,-0.2071,0,0,-0.1655,-0.163,-0.1628,-0.1628,-0.164,-0.1651,-0.1708,-0.1717,-0.1752,-0.1843,-0.1896,-0.1926,-0.1964,-0.1956,-0.1972,-0.1994,-0.1949,-0.1999,-0.1994,-0.1951,-0.1913,-0.1897,-0.1882,-0.2067,-0.2068,-0.2068,0,0,-0.1611,-0.1617,-0.1587,-0.1617,-0.1625,-0.163,-0.1657,-0.1697,-0.1725,-0.1821,-0.183,-0.1839,-0.196,-0.1892,-0.1909,-0.1875,-0.1902,-0.1896,-0.1825,-0.1787,-0.1773,-0.1761,-0.1726,-0.171,-0.1901,-0.1901,-0.1901,0,-0.1624,-0.1596,-0.1586,-0.1589,-0.1582,-0.1635,-0.1631,-0.1673,-0.1746,-0.1741,-0.1828,-0.1878,-0.1908,-0.1848,-0.1809,-0.1853,-0.1852,-0.1871,-0.1778,-0.1765,-0.1752,-0.172,-0.1703,-0.1898,-0.1898,-0.1899,-0.1899,0,-0.1599,-0.1596,-0.1559,-0.1567,-0.157,-0.1548,-0.1578,-0.1597,-0.1675,-0.1721,-0.1718,-0.175,-0.1762,-0.1768,-0.1805,-0.1696,-0.173,-0.177,-0.1806,-0.1733,-0.1703,-0.1687,-0.1894,-0.1895,-0.1896,-0.1897,0,0,-0.1538,-0.1534,-0.1535,-0.1533,-0.1546,-0.1529,-0.153,-0.1505,-0.1526,-0.16,-0.1604,-0.1603,-0.1614,-0.1619,-0.162,-0.1587,-0.1507,-0.1646,-0.1646,-0.1616,-0.1437,-0.1333,-0.1306,-0.1561,-0.1558,-0.1555,-0.1456,0,-0.1508,-0.1478,-0.1486,-0.1468,-0.1432,-0.1458,-0.146,-0.1472,-0.1509,-0.1524,-0.152,-0.154,-0.1563,-0.1576,-0.1531,-0.1524,-0.1461,-0.153,-0.1504,-0.1501,-0.1423,-0.128,-0.1281,-0.1181,-0.144,-0.1437,-0.1435,0,-0.1474,-0.1439,-0.1395,-0.1372,-0.1361,-0.1376,-0.1324,-0.135,-0.1361,-0.1408,-0.1397,-0.1437,-0.1353,-0.1429,-0.1331,-0.1394,-0.1375,-0.138,-0.1378,-0.1272,-0.1364,-0.1291,-0.1142,-0.1408,-0.141,-0.1412,-0.1414,0,-0.1373,-0.1364,-0.1292,-0.1308,-0.131,-0.1283,-0.1284,-0.1298,-0.1305,-0.1309,-0.1344,-0.129,-0.129,-0.1254,-0.1253,-0.1305,-0.1182,-0.1263,-0.1128,-0.1124,-0.1101,-0.1098,-0.1143,-0.1143,-0.1144,-0.1144,-0.1144,0,-0.1292,-0.1251,-0.1254,-0.1235,-0.1186,-0.1218,-0.1186,-0.1205,-0.1231,-0.1226,-0.1258,-0.1236,-0.1255,-0.1214,-0.1206,-0.1093,-0.1132,-0.1043,-0.1058,-0.1084,-0.1081,-0.1269,-0.1285,-0.114,-0.1141,-0.1142,-0.1142,0,-0.1191,-0.1195,-0.1132,-0.1127,-0.1133,-0.1108,-0.115,-0.115,-0.1182,-0.1173,-0.1174,-0.1183,-0.1104,-0.1095,-0.104,-0.1015,-0.0943,-0.0888,-0.0909,-0.0922,-0.0926,-0.0941,-0.0716,-0.0711,-0.0706,-0.0703,-0.0699,0,-0.1118,-0.1077,-0.1062,-0.1054,-0.1051,-0.1045,-0.1057,-0.111,-0.1118,-0.1125,-0.1106,-0.1042,-0.0958,-0.0827,-0.0768,-0.0672,-0.0767,-0.0638,-0.0682,-0.0828,-0.0867,-0.0889,-0.0909,-0.0664,-0.0661,-0.0658,-0.0656,0,-0.099,-0.0997,-0.0966,-0.0958,-0.0958,-0.0963,-0.098,-0.0985,-0.1034,-0.103,-0.0968,-0.0895,-0.0738,-0.0615,-0.0498,-0.0472,-0.0656,-0.0574,-0.0709,-0.0754,-0.0765,-0.0809,-0.0833,-0.0633,-0.0635,-0.0637,-0.0638,-0.0639,-0.0904,-0.0876,-0.0865,-0.0856,-0.0866,-0.0863,-0.0842,-0.0871,-0.0865,-0.0826,-0.0804,-0.0664,-0.0644,-0.0386,-0.0332,-0.0308,-0.036,-0.0428,-0.0442,-0.0458,-0.0451,-0.0451,-0.0261,-0.0261,-0.0261,-0.0261,-0.0261,0,-0.0805,-0.0799,-0.0778,-0.0761,-0.0742,-0.0778,-0.0779,-0.0748,-0.0707,-0.0631,-0.055,-0.0445,-0.0334,-0.0282,-0.018,-0.0154,-0.0228,-0.0185,-0.0323,-0.0346,-0.0366,-0.0361,-0.0143,-0.0142,-0.0141,-0.014,0,0,-0.0755,-0.0711,-0.0707,-0.0642,-0.0634,-0.0575,-0.0555,-0.0529,-0.0454,-0.0353,-0.0266,-0.0237,-0.0221,-0.0155,-0.0167,-0.0107,-0.0211,-0.0102,-0.0206,-0.0387,-0.0405,-0.0525,-0.0542,0,0,0,0,0]},{"header":{"parameterUnit":"m.s-1","parameterCategory":2,"la1":30.2991,"la2":30.254,"lo1":-89.0895,"lo2":-89.0444,"dy":0.0017,"dx":0.0017,"nx":28,"ny":28,"refTime":"2023-08-01T09:00:00:Z","depth":"2","parameterNumber":3,"parameterNumberName":"V-component_of_CURRENTS"},"data":[0,0,0,0,0,0,0,0,0,0,0,0,0,0,0,0,0,0,0,0,0,0,0,0,0,0,0,0,0,0,0,0,0,0,0,0,0,0,0,0,0,0,0,0,0,0,0,0,0,0,0,0,0,0,0,0,0,0,-0.0799,-0.0799,0,-0.0784,-0.0784,-0.0783,-0.0731,-0.0731,-0.073,-0.0729,-0.0409,-0.0402,-0.0394,0,0,0,0,0,0,0,0,0,0,0,0,0,-0.0789,-0.0789,-0.0799,-0.0799,-0.0799,-0.0784,-0.0784,-0.0783,-0.0732,-0.0731,-0.073,-0.0729,-0.0412,-0.0403,-0.0393,0,0,0,0,0,0,0,0,0,0,0,0,0,-0.0782,-0.0789,-0.0799,-0.0775,-0.0772,-0.0784,-0.0784,-0.0783,-0.0732,-0.0731,-0.0729,-0.0728,-0.0415,-0.0404,-0.0392,-0.0345,0,0,-0.0357,-0.0352,0,0,0,0,0,0,0,0,-0.0783,-0.0782,-0.0778,-0.0776,-0.0774,-0.0762,-0.0663,-0.0623,-0.0732,-0.0743,-0.0729,-0.0728,-0.0502,-0.0483,-0.0482,-0.033,-0.0317,-0.0356,-0.0349,-0.0344,-0.034,0,0,0,0,0,0,0,-0.0783,-0.0783,-0.0789,-0.0778,-0.0776,-0.0767,-0.0764,-0.0656,-0.0621,-0.0742,-0.0739,-0.0744,-0.0498,-0.0494,-0.0474,-0.0312,-0.0356,-0.0346,-0.0338,-0.0334,-0.0036,-0.0035,0,0,0,0,0,0,-0.0794,-0.0783,-0.079,-0.0789,-0.078,-0.0768,-0.0765,-0.0764,-0.0629,-0.0611,-0.0745,-0.0742,-0.0515,-0.0487,-0.0462,-0.0339,-0.0344,-0.0333,-0.0326,-0.0037,-0.0035,-0.0034,0,0,0,0,0,0,-0.0794,-0.0794,-0.0791,-0.0789,-0.0788,-0.077,-0.0769,-0.0764,-0.0728,-0.0635,-0.061,-0.0711,-0.0512,-0.0478,-0.0371,-0.0328,-0.0328,-0.0317,-0.0038,-0.0036,-0.0035,-0.013,0,0,0,0,0,0,-0.0793,-0.0794,-0.0809,-0.079,-0.0789,-0.078,-0.0771,-0.0765,-0.0737,-0.0731,-0.0597,-0.0569,-0.0509,-0.039,-0.036,-0.0312,-0.0308,-0.0039,-0.0037,-0.0035,-0.0128,-0.0132,-0.0135,0,0,0,0,0,-0.0793,-0.0824,-0.081,-0.0812,-0.0806,-0.078,-0.0777,-0.0758,-0.0736,-0.0719,-0.0649,-0.0572,-0.0356,-0.0381,-0.0345,-0.0293,-0.004,-0.0038,-0.0036,-0.0126,-0.0131,-0.0135,0,0,0,0,0,0,-0.0833,-0.0822,-0.0806,-0.0832,-0.0797,-0.0772,-0.0779,-0.0742,-0.068,-0.0668,-0.0566,-0.0533,-0.0424,-0.0346,-0.0375,-0.0202,-0.018,-0.0171,-0.0261,-0.0264,-0.0268,-0.03,-0.0298,0,0,0,0,0,-0.0849,-0.0868,-0.083,-0.0852,-0.0834,-0.0794,-0.0785,-0.0757,-0.0702,-0.0675,-0.0594,-0.0495,-0.0394,-0.0322,-0.0237,-0.0134,-0.0093,-0.0075,-0.0079,-0.0082,-0.0085,-0.003,-0.003,-0.0027,-0.0027,-0.0027,0,0,-0.0866,-0.0872,-0.0878,-0.0862,-0.084,-0.0806,-0.0783,-0.0761,-0.0724,-0.0642,-0.0578,-0.0503,-0.0373,-0.0284,-0.0223,-0.0205,-0.006,-0.0079,-0.0084,-0.0084,-0.0028,-0.0028,-0.0029,-0.0026,-0.0026,-0.0026,0,0,-0.0897,-0.0911,-0.0914,-0.0887,-0.0856,-0.0828,-0.0807,-0.076,-0.073,-0.0654,-0.0595,-0.0519,-0.0352,-0.0289,-0.0218,-0.018,-0.0091,-0.012,-0.0145,-0.0093,-0.0094,-0.0094,-0.0048,-0.0043,-0.011,-0.0111,-0.0111,0,-0.0918,-0.0911,-0.0908,-0.0892,-0.0872,-0.0825,-0.0786,-0.0755,-0.0683,-0.065,-0.0633,-0.045,-0.0359,-0.024,-0.0244,-0.0187,-0.0144,-0.0145,-0.0102,-0.0101,-0.0099,-0.0052,-0.0046,-0.0115,-0.0114,-0.0114,-0.0114,0,-0.092,-0.0912,-0.0914,-0.0875,-0.0854,-0.0823,-0.0769,-0.074,-0.0693,-0.065,-0.0546,-0.0467,-0.0354,-0.0308,-0.0257,-0.0183,-0.0153,-0.0129,-0.0104,-0.0106,-0.0055,-0.0047,-0.0121,-0.012,-0.0118,-0.0117,0,0,-0.0962,-0.0917,-0.0916,-0.0886,-0.0837,-0.0815,-0.0768,-0.0699,-0.0659,-0.0598,-0.0534,-0.0416,-0.039,-0.0313,-0.0247,-0.0207,-0.0177,-0.0167,-0.0162,-0.0145,-0.0059,-0.0023,-0.001,-0.0143,-0.0142,-0.0141,-0.0031,0,-0.0947,-0.0911,-0.0895,-0.0847,-0.0808,-0.0771,-0.0732,-0.0678,-0.0622,-0.0565,-0.0484,-0.04,-0.0379,-0.0329,-0.029,-0.0195,-0.0157,-0.0209,-0.0038,-0.0033,-0.002,0.0001,-0.0059,0.0035,-0.0023,-0.0021,-0.002,0,-0.0937,-0.0916,-0.0861,-0.0815,-0.0796,-0.077,-0.0707,-0.0666,-0.0585,-0.0542,-0.0471,-0.0407,-0.0328,-0.0321,-0.0189,-0.0218,-0.0151,-0.0095,-0.0089,-0.0016,0.0019,0.0034,0.0053,-0.0006,-0.0007,-0.0008,-0.0009,0,-0.0944,-0.0896,-0.0853,-0.0834,-0.0772,-0.0752,-0.0723,-0.0656,-0.0621,-0.0535,-0.0497,-0.0396,-0.0336,-0.0249,-0.0137,-0.0156,0.0006,0.0,0.0094,0.0098,0.0101,0.0103,0.0081,0.0081,0.0081,0.0081,0.008,0,-0.093,-0.09,-0.0858,-0.0831,-0.08,-0.0762,-0.0721,-0.0681,-0.0618,-0.0577,-0.0496,-0.044,-0.0318,-0.0208,-0.0123,0.0023,0.0025,0.0094,0.0132,0.0068,0.0066,0.0076,0.0073,0.0085,0.0084,0.0083,0.0082,0,-0.0924,-0.0894,-0.085,-0.08,-0.0795,-0.0774,-0.074,-0.0715,-0.0655,-0.06,-0.0575,-0.0458,-0.0314,-0.0175,-0.0012,0.005,0.0181,0.0233,0.0148,0.0173,0.0227,0.0219,0.0333,0.0335,0.0337,0.0339,0.034,0,-0.0902,-0.0879,-0.084,-0.0838,-0.0817,-0.0794,-0.0786,-0.0738,-0.0716,-0.0612,-0.059,-0.0435,-0.0338,-0.0075,0.0105,0.0289,0.0266,0.0311,0.0253,0.0229,0.0255,0.0243,0.0233,0.0218,0.0218,0.0218,0.0219,0,-0.0865,-0.086,-0.0832,-0.0834,-0.0835,-0.0832,-0.0818,-0.0812,-0.0754,-0.0706,-0.0622,-0.0537,-0.0261,-0.0052,0.0209,0.0272,0.0274,0.0321,0.0341,0.0164,0.013,0.0152,0.0144,0.022,0.022,0.022,0.022,0.022,-0.0845,-0.0837,-0.0824,-0.0833,-0.0845,-0.0872,-0.0881,-0.0862,-0.0837,-0.0729,-0.0659,-0.0436,-0.0268,0.0163,0.0252,0.0367,0.0366,0.0336,0.0332,0.0328,0.0295,0.0267,0.0376,0.0377,0.0377,0.0378,0.0378,0,-0.0823,-0.083,-0.0832,-0.0851,-0.0881,-0.0883,-0.0906,-0.0898,-0.0883,-0.0684,-0.0586,-0.0297,-0.008,0.0152,0.0362,0.0405,0.0338,0.0354,0.0267,0.0264,0.0262,0.0222,0.0286,0.0287,0.0287,0.0287,0,0,-0.0814,-0.0818,-0.083,-0.0882,-0.0906,-0.0949,-0.097,-0.0944,-0.0813,-0.0599,-0.0341,-0.0147,0.0085,0.0211,0.0217,0.0299,0.0244,0.0253,0.0311,0.0194,0.0192,0.0229,0.0163,0,0,0,0,0]}],[{"header":{"parameterUnit":"m.s-1","parameterCategory":2,"la1":30.2991,"la2":30.254,"lo1":-89.0895,"lo2":-89.0444,"dy":0.0017,"dx":0.0017,"nx":28,"ny":28,"refTime":"2023-08-01T09:00:00:Z","depth":"4","parameterNumber":2,"parameterNumberName":"U-component_of_CURRENTS"},"data":[0,0,0,0,0,0,0,0,0,0,0,0,0,0,0,0,0,0,0,0,0,0,0,0,0,0,0,0,0,0,0,0,0,0,0,0,0,0,0,0,0,0,0,0,0,0,0,0,0,0,0,0,0,0,0,0,0,0,-0.0765,-0.0766,0,-0.0791,-0.0792,-0.0792,-0.0808,-0.0808,-0.0809,-0.0809,-0.0841,-0.0842,-0.0843,0,0,0,0,0,0,0,0,0,0,0,0,0,-0.0771,-0.0771,-0.0765,-0.0766,-0.0766,-0.0791,-0.0792,-0.0792,-0.0808,-0.0808,-0.0809,-0.0809,-0.0841,-0.0842,-0.0843,0,0,0,0,0,0,0,0,0,0,0,0,0,-0.078,-0.0771,-0.0765,-0.0778,-0.0779,-0.0791,-0.0792,-0.0792,-0.0808,-0.0808,-0.0809,-0.0809,-0.0841,-0.0842,-0.0843,-0.0846,0,0,-0.0846,-0.0847,0,0,0,0,0,0,0,0,-0.0779,-0.0779,-0.0775,-0.0777,-0.0778,-0.0797,-0.0806,-0.0811,-0.0808,-0.0797,-0.0809,-0.0809,-0.0827,-0.0829,-0.0833,-0.0848,-0.0849,-0.0846,-0.0847,-0.0848,-0.0848,0,0,0,0,0,0,0,-0.0778,-0.0779,-0.0775,-0.0776,-0.0778,-0.0796,-0.0797,-0.0807,-0.0811,-0.0798,-0.0799,-0.0802,-0.0828,-0.0832,-0.0834,-0.085,-0.0846,-0.0847,-0.0848,-0.0849,-0.0908,-0.0909,0,0,0,0,0,0,-0.0773,-0.0778,-0.0775,-0.0776,-0.078,-0.0795,-0.0797,-0.0791,-0.081,-0.0814,-0.0802,-0.0803,-0.083,-0.0833,-0.0835,-0.0876,-0.0848,-0.0849,-0.0849,-0.0907,-0.0908,-0.0909,0,0,0,0,0,0,-0.0773,-0.0772,-0.0774,-0.0779,-0.078,-0.0795,-0.0788,-0.0791,-0.0806,-0.0814,-0.0817,-0.0815,-0.083,-0.0834,-0.086,-0.0876,-0.0849,-0.085,-0.0906,-0.0907,-0.0908,-0.0934,0,0,0,0,0,0,-0.0773,-0.0772,-0.0772,-0.0778,-0.0779,-0.0792,-0.0788,-0.0791,-0.0807,-0.0809,-0.0826,-0.0828,-0.0831,-0.0859,-0.0861,-0.0877,-0.0851,-0.0905,-0.0906,-0.0908,-0.0932,-0.0936,-0.0939,0,0,0,0,0,-0.0773,-0.0766,-0.0772,-0.0772,-0.0777,-0.0793,-0.0796,-0.0807,-0.0808,-0.082,-0.0833,-0.0829,-0.0871,-0.086,-0.0863,-0.0879,-0.0904,-0.0906,-0.0908,-0.093,-0.0935,-0.0939,0,0,0,0,0,0,-0.0773,-0.0767,-0.0774,-0.0767,-0.0787,-0.0796,-0.081,-0.0813,-0.0832,-0.0842,-0.0841,-0.0845,-0.0872,-0.0874,-0.0862,-0.0902,-0.0886,-0.0889,-0.0902,-0.0907,-0.0911,-0.091,-0.0852,0,0,0,0,0,-0.0772,-0.0761,-0.0775,-0.0772,-0.0788,-0.0802,-0.0811,-0.0823,-0.0838,-0.0847,-0.0851,-0.0865,-0.0881,-0.0893,-0.0904,-0.0928,-0.0914,-0.0941,-0.0944,-0.0948,-0.095,-0.0956,-0.0961,-0.0915,-0.0915,-0.0915,0,0,-0.0771,-0.0767,-0.0762,-0.0771,-0.0791,-0.0813,-0.0809,-0.0835,-0.0852,-0.0848,-0.0871,-0.0877,-0.0889,-0.0916,-0.0928,-0.0922,-0.0948,-0.095,-0.0953,-0.0954,-0.0959,-0.0963,-0.0967,-0.0917,-0.0917,-0.0916,0,0,-0.0768,-0.0768,-0.0769,-0.0785,-0.0815,-0.083,-0.084,-0.086,-0.0873,-0.0897,-0.0898,-0.0914,-0.0934,-0.0945,-0.0954,-0.0985,-0.0965,-0.0991,-0.1014,-0.102,-0.1023,-0.1026,-0.0988,-0.0987,-0.0996,-0.0996,-0.0996,0,-0.0771,-0.0773,-0.0776,-0.079,-0.0811,-0.0838,-0.0866,-0.0881,-0.0902,-0.0918,-0.0911,-0.0944,-0.0947,-0.0983,-0.0991,-0.0993,-0.098,-0.0994,-0.1024,-0.1027,-0.103,-0.099,-0.0989,-0.0998,-0.0997,-0.0997,-0.0997,0,-0.0775,-0.0787,-0.0796,-0.082,-0.0842,-0.0873,-0.0902,-0.0925,-0.0942,-0.0953,-0.0988,-0.0993,-0.1012,-0.1015,-0.1012,-0.1039,-0.1015,-0.1024,-0.101,-0.1035,-0.0991,-0.099,-0.1,-0.0999,-0.0999,-0.0998,0,0,-0.0754,-0.0792,-0.0798,-0.0821,-0.0866,-0.0885,-0.0925,-0.0969,-0.0993,-0.1013,-0.1035,-0.106,-0.106,-0.107,-0.107,-0.1073,-0.1064,-0.1058,-0.1058,-0.1014,-0.1048,-0.0958,-0.0947,-0.1083,-0.1084,-0.1084,-0.0999,0,-0.0768,-0.0798,-0.0817,-0.0862,-0.089,-0.0929,-0.0959,-0.0998,-0.1026,-0.1048,-0.1069,-0.1087,-0.1084,-0.109,-0.1099,-0.1074,-0.1067,-0.1084,-0.1035,-0.1032,-0.0946,-0.0945,-0.1086,-0.0998,-0.0998,-0.0997,-0.0997,0,-0.0768,-0.079,-0.0833,-0.0888,-0.0907,-0.0936,-0.0999,-0.1028,-0.1072,-0.1091,-0.1122,-0.1127,-0.1138,-0.1128,-0.1109,-0.1122,-0.1088,-0.1064,-0.1061,-0.097,-0.0941,-0.0975,-0.0994,-0.0994,-0.0995,-0.0995,-0.0995,0,-0.0745,-0.0802,-0.0838,-0.0855,-0.0918,-0.0949,-0.0989,-0.104,-0.1066,-0.1111,-0.1121,-0.1152,-0.1144,-0.1137,-0.1084,-0.1101,-0.104,-0.1058,-0.0942,-0.0933,-0.1028,-0.1026,-0.1042,-0.1042,-0.1042,-0.1043,-0.1043,0,-0.0736,-0.0767,-0.0831,-0.0846,-0.0893,-0.094,-0.0989,-0.103,-0.1077,-0.1089,-0.1135,-0.113,-0.1148,-0.1114,-0.1083,-0.0989,-0.1039,-0.0934,-0.0911,-0.1037,-0.1037,-0.1025,-0.1024,-0.1039,-0.104,-0.1041,-0.1041,0,-0.0697,-0.074,-0.0782,-0.0855,-0.0877,-0.0907,-0.0979,-0.1004,-0.1056,-0.1067,-0.1077,-0.1104,-0.1054,-0.1042,-0.0997,-0.0959,-0.0898,-0.0852,-0.0948,-0.0934,-0.0785,-0.0787,-0.072,-0.0716,-0.0713,-0.0711,-0.0708,0,-0.0682,-0.0695,-0.0772,-0.0791,-0.0825,-0.0877,-0.0906,-0.098,-0.0997,-0.1029,-0.1017,-0.0996,-0.0993,-0.0849,-0.0862,-0.0787,-0.0781,-0.0743,-0.0803,-0.077,-0.0755,-0.0762,-0.0768,-0.0703,-0.0703,-0.0702,-0.0701,0,-0.0647,-0.0675,-0.0704,-0.0744,-0.0778,-0.0814,-0.0857,-0.0862,-0.092,-0.0975,-0.0918,-0.0881,-0.0814,-0.0777,-0.0714,-0.0674,-0.0773,-0.071,-0.0717,-0.0774,-0.0749,-0.0739,-0.0748,-0.069,-0.0692,-0.0693,-0.0693,0,-0.0618,-0.0624,-0.0657,-0.0684,-0.0722,-0.0725,-0.0766,-0.0769,-0.0792,-0.0833,-0.0801,-0.0778,-0.0792,-0.0713,-0.066,-0.0608,-0.0608,-0.0598,-0.0612,-0.0624,-0.0635,-0.0591,-0.0453,0,0,0,0,0,-0.0586,-0.0576,-0.0595,-0.0614,-0.0648,-0.0663,-0.0717,-0.0756,-0.0807,-0.0738,-0.0769,-0.0702,-0.0625,-0.0623,-0.0545,-0.0617,-0.0613,-0.0526,-0.0611,-0.0629,-0.0642,-0.0664,0,0,0,0,0,0,-0.0559,-0.057,-0.0569,-0.0543,-0.0537,-0.0561,-0.0586,-0.0625,-0.0599,-0.0649,-0.061,-0.0645,-0.0583,-0.0638,-0.0521,-0.0518,-0.0554,-0.0522,-0.052,-0.0622,-0.0633,-0.0644,-0.0671,0,0,0,0,0]},{"header":{"parameterUnit":"m.s-1","parameterCategory":2,"la1":30.2991,"la2":30.254,"lo1":-89.0895,"lo2":-89.0444,"dy":0.0017,"dx":0.0017,"nx":28,"ny":28,"refTime":"2023-08-01T09:00:00:Z","depth":"4","parameterNumber":3,"parameterNumberName":"V-component_of_CURRENTS"},"data":[0,0,0,0,0,0,0,0,0,0,0,0,0,0,0,0,0,0,0,0,0,0,0,0,0,0,0,0,0,0,0,0,0,0,0,0,0,0,0,0,0,0,0,0,0,0,0,0,0,0,0,0,0,0,0,0,0,0,-0.0601,-0.0601,0,-0.0571,-0.057,-0.057,-0.0573,-0.0574,-0.0574,-0.0575,-0.0545,-0.0543,-0.0542,0,0,0,0,0,0,0,0,0,0,0,0,0,-0.0589,-0.059,-0.0601,-0.0601,-0.0601,-0.0571,-0.057,-0.057,-0.0573,-0.0574,-0.0575,-0.0576,-0.0545,-0.0544,-0.0542,0,0,0,0,0,0,0,0,0,0,0,0,0,-0.0578,-0.059,-0.0601,-0.0601,-0.0601,-0.0571,-0.057,-0.0569,-0.0573,-0.0574,-0.0575,-0.0576,-0.0546,-0.0544,-0.0542,-0.0505,0,0,-0.0535,-0.0534,0,0,0,0,0,0,0,0,-0.0578,-0.0578,-0.0601,-0.0601,-0.0601,-0.0579,-0.0555,-0.0549,-0.0572,-0.058,-0.0575,-0.0577,-0.0558,-0.0554,-0.0542,-0.0504,-0.0502,-0.0535,-0.0533,-0.0532,-0.0532,0,0,0,0,0,0,0,-0.0579,-0.0579,-0.0586,-0.0601,-0.0601,-0.0578,-0.0578,-0.0553,-0.0561,-0.058,-0.0581,-0.0582,-0.0557,-0.0544,-0.0541,-0.0502,-0.0535,-0.0533,-0.0531,-0.053,-0.045,-0.0449,0,0,0,0,0,0,-0.0592,-0.058,-0.0587,-0.0586,-0.0596,-0.0578,-0.0578,-0.0583,-0.0561,-0.056,-0.0581,-0.0582,-0.0547,-0.0544,-0.054,-0.0519,-0.0532,-0.053,-0.0529,-0.045,-0.045,-0.0449,0,0,0,0,0,0,-0.0592,-0.0593,-0.0589,-0.0584,-0.0582,-0.0578,-0.0583,-0.0582,-0.0585,-0.0562,-0.0561,-0.0588,-0.0548,-0.0544,-0.0523,-0.0517,-0.0529,-0.0527,-0.0451,-0.045,-0.0449,-0.0461,0,0,0,0,0,0,-0.0591,-0.0593,-0.0607,-0.0585,-0.0583,-0.0581,-0.0582,-0.058,-0.0584,-0.0586,-0.0567,-0.0565,-0.0549,-0.0526,-0.052,-0.0514,-0.0525,-0.0452,-0.0451,-0.0449,-0.0462,-0.0461,-0.046,0,0,0,0,0,-0.0591,-0.0596,-0.0608,-0.0609,-0.0601,-0.0581,-0.0577,-0.0575,-0.0584,-0.0583,-0.0567,-0.0566,-0.0513,-0.0523,-0.0517,-0.051,-0.0453,-0.0451,-0.045,-0.0463,-0.0461,-0.046,0,0,0,0,0,0,-0.0602,-0.0597,-0.0609,-0.0616,-0.0609,-0.0583,-0.0579,-0.0582,-0.0568,-0.057,-0.0554,-0.0549,-0.0531,-0.0514,-0.0527,-0.0481,-0.0483,-0.048,-0.0495,-0.0494,-0.0493,-0.0489,-0.0523,0,0,0,0,0,-0.0612,-0.0617,-0.0608,-0.0618,-0.061,-0.0599,-0.0595,-0.0593,-0.0576,-0.0572,-0.0556,-0.0535,-0.0513,-0.0501,-0.0479,-0.0451,-0.0416,-0.0442,-0.0441,-0.044,-0.0431,-0.0365,-0.0358,-0.0443,-0.0443,-0.0443,0,0,-0.0624,-0.062,-0.0627,-0.0621,-0.061,-0.0596,-0.0598,-0.0589,-0.0584,-0.0569,-0.0551,-0.0533,-0.0506,-0.0477,-0.0467,-0.0466,-0.0398,-0.0438,-0.0438,-0.0429,-0.0363,-0.0354,-0.0347,-0.0442,-0.0442,-0.0442,0,0,-0.0627,-0.0639,-0.0635,-0.0626,-0.0615,-0.0603,-0.0606,-0.0584,-0.0581,-0.0562,-0.0549,-0.0524,-0.0493,-0.0464,-0.0449,-0.0425,-0.0398,-0.0425,-0.0412,-0.0348,-0.0341,-0.0334,-0.0285,-0.0273,-0.042,-0.042,-0.042,0,-0.0643,-0.0639,-0.0631,-0.0617,-0.0615,-0.0609,-0.06,-0.0587,-0.0566,-0.0553,-0.0561,-0.0495,-0.0483,-0.0434,-0.0431,-0.0423,-0.0386,-0.0423,-0.0347,-0.0339,-0.0331,-0.0283,-0.027,-0.0421,-0.042,-0.042,-0.042,0,-0.063,-0.0634,-0.0625,-0.0612,-0.0606,-0.0597,-0.0581,-0.0572,-0.057,-0.0552,-0.0512,-0.048,-0.0439,-0.0434,-0.0429,-0.0369,-0.0361,-0.0358,-0.0353,-0.0324,-0.0275,-0.0261,-0.0421,-0.0421,-0.0421,-0.0421,0,0,-0.0648,-0.0624,-0.0625,-0.0625,-0.0605,-0.0599,-0.0583,-0.056,-0.0545,-0.0517,-0.0482,-0.0445,-0.0422,-0.0402,-0.0383,-0.0333,-0.0262,-0.0326,-0.0323,-0.0282,-0.0124,-0.0165,-0.0154,-0.0244,-0.0241,-0.0239,-0.0114,0,-0.0645,-0.0627,-0.0616,-0.0612,-0.06,-0.0592,-0.0577,-0.0557,-0.0535,-0.0494,-0.045,-0.0411,-0.0411,-0.0391,-0.0338,-0.0282,-0.0224,-0.0296,-0.0154,-0.015,-0.0193,-0.0139,-0.0231,-0.0104,-0.01,-0.0098,-0.0096,0,-0.0633,-0.0626,-0.0618,-0.0612,-0.0607,-0.0605,-0.0585,-0.057,-0.0509,-0.0488,-0.0429,-0.0391,-0.0316,-0.0323,-0.0191,-0.0236,-0.0179,-0.0134,-0.0128,-0.0149,-0.0165,-0.0135,-0.0071,-0.0073,-0.0075,-0.0077,-0.0078,0,-0.0642,-0.0631,-0.0632,-0.0629,-0.0613,-0.0615,-0.0609,-0.0566,-0.0549,-0.0477,-0.0445,-0.035,-0.0302,-0.0208,-0.0132,-0.015,0.0014,0.0004,0.003,0.0027,0.003,0.0021,0.0115,0.0115,0.0115,0.0114,0.0114,0,-0.0633,-0.0638,-0.0642,-0.064,-0.0648,-0.0632,-0.0623,-0.0599,-0.0548,-0.0514,-0.0442,-0.0391,-0.0271,-0.0174,-0.0102,0.0004,0.0045,0.005,0.0066,0.002,0.0009,0.0039,0.0029,0.0119,0.0118,0.0117,0.0116,0,-0.0631,-0.0631,-0.0639,-0.0642,-0.065,-0.0656,-0.065,-0.0635,-0.0585,-0.0535,-0.0511,-0.0402,-0.0278,-0.0159,-0.0003,0.0033,0.014,0.0168,0.0111,0.0119,0.0107,0.0094,0.0224,0.0224,0.0224,0.0224,0.0224,0,-0.0621,-0.0624,-0.0652,-0.067,-0.0676,-0.0685,-0.069,-0.0659,-0.0641,-0.0547,-0.0522,-0.039,-0.0311,-0.0104,0.0002,0.0164,0.0167,0.0218,0.0164,0.012,0.0123,0.0111,0.0099,0.0224,0.0224,0.0224,0.0223,0,-0.0609,-0.0629,-0.064,-0.0679,-0.0704,-0.072,-0.0725,-0.071,-0.0661,-0.0617,-0.051,-0.0397,-0.0255,-0.0109,0.0017,0.0122,0.0182,0.0216,0.0217,0.0167,0.012,0.0121,0.0109,0.0223,0.0223,0.0223,0.0223,0,-0.0611,-0.0625,-0.0654,-0.0686,-0.0724,-0.0746,-0.0743,-0.0712,-0.0683,-0.0578,-0.0547,-0.0386,-0.0288,-0.013,-0.0018,0.0087,0.01,0.0108,0.0114,0.0116,0.0028,-0.0051,0.0032,0,0,0,0,0,-0.0608,-0.0629,-0.0659,-0.0699,-0.0738,-0.0759,-0.0763,-0.075,-0.0702,-0.0631,-0.0584,-0.0451,-0.0264,-0.0179,-0.0077,-0.0042,0.0102,0.0075,0.0109,0.022,0.0221,0.013,0,0,0,0,0,0,-0.0611,-0.0641,-0.0656,-0.0706,-0.0735,-0.0773,-0.0777,-0.0746,-0.0698,-0.0632,-0.0524,-0.0455,-0.0267,-0.0314,-0.008,-0.0048,-0.0023,0.0172,0.0173,0.022,0.022,0.0221,0.0128,0,0,0,0,0]}]]